When you browse on this site, cookies collect data to enhance your experience and personalize the content and advertising you see.
Visit our Privacy Policy to learn more. By continuing to use the site, you agree to this use of cookies and data.
  • în România
  • Lista ţărilor
  • Pe 7 zile
  • Temperatura apei
  • Hartă satelitară
  • Meteo pe hartă
  • Widget-uri
  • user-avatar
    Intrare

    Meteo pe oră la Glew

    Astăzi, 19 Mai, Duminică

    Timp Temperatura Precipitaţii Vânt Presiune Umiditate
    00:00 +14°C° 0 mm 1 m/s 736 mmHg 91%
    01:00 +13°C° 0 mm 1 m/s 736 mmHg 92%
    02:00 +13°C° 0 mm 1 m/s 736 mmHg 92%
    03:00 +12°C° 0 mm 1 m/s 735 mmHg 92%
    04:00 +11°C° 0 mm 0 m/s 735 mmHg 92%
    05:00 +13°C° 0 mm 1 m/s 735 mmHg 88%
    06:00 +15°C° 0 mm 1 m/s 735 mmHg 84%
    07:00 +16°C° 0 mm 1 m/s 735 mmHg 81%
    08:00 +19°C° 0 mm 1 m/s 735 mmHg 76%
    09:00 +20°C° 0 mm 2 m/s 735 mmHg 71%
    10:00 +23°C° 0 mm 2 m/s 735 mmHg 67%
    11:00 +22°C° 0.1 mm 3 m/s 735 mmHg 64%
    12:00 +23°C° 0.1 mm 4 m/s 735 mmHg 62%
    13:00 +23°C° 0 mm 5 m/s 735 mmHg 62%
    14:00 +23°C° 0.5 mm 5 m/s 735 mmHg 64%
    15:00 +23°C° 0.5 mm 5 m/s 735 mmHg 66%
    16:00 +23°C° 0.5 mm 5 m/s 735 mmHg 68%
    17:00 +21°C° 0.1 mm 5 m/s 734 mmHg 72%
    18:00 +20°C° 0.1 mm 4 m/s 734 mmHg 77%
    19:00 +18°C° 0.1 mm 4 m/s 734 mmHg 82%
    20:00 +17°C° 0 mm 3 m/s 734 mmHg 85%
    21:00 +16°C° 0 mm 3 m/s 734 mmHg 87%
    22:00 +14°C° 0 mm 3 m/s 734 mmHg 90%
    23:00 +15°C° 0 mm 2 m/s 734 mmHg 91%

    Mâine, 20 Mai, Luni

    Timp Temperatura Precipitaţii Vânt Presiune Umiditate
    00:00 +14°C° 0 mm 2 m/s 734 mmHg 91%
    01:00 +14°C° 0 mm 2 m/s 733 mmHg 91%
    02:00 +14°C° 0 mm 2 m/s 733 mmHg 91%
    03:00 +14°C° 0 mm 2 m/s 733 mmHg 92%
    04:00 +13°C° 0 mm 2 m/s 732 mmHg 92%
    05:00 +14°C° 0 mm 3 m/s 732 mmHg 88%
    06:00 +17°C° 0 mm 4 m/s 732 mmHg 84%
    07:00 +18°C° 0 mm 4 m/s 732 mmHg 80%
    08:00 +20°C° 0 mm 5 m/s 733 mmHg 74%
    09:00 +22°C° 0 mm 5 m/s 733 mmHg 67%
    10:00 +24°C° 0 mm 6 m/s 733 mmHg 61%
    11:00 +25°C° 0.1 mm 5 m/s 733 mmHg 59%
    12:00 +26°C° 0.1 mm 5 m/s 733 mmHg 56%
    13:00 +26°C° 0.1 mm 5 m/s 733 mmHg 54%
    14:00 +26°C° 0.1 mm 4 m/s 733 mmHg 56%
    15:00 +25°C° 0.1 mm 4 m/s 733 mmHg 59%
    16:00 +25°C° 0.1 mm 4 m/s 733 mmHg 61%
    17:00 +22°C° 0.1 mm 3 m/s 733 mmHg 66%
    18:00 +20°C° 0.1 mm 3 m/s 733 mmHg 70%
    19:00 +19°C° 0.1 mm 3 m/s 733 mmHg 75%
    20:00 +18°C° 0 mm 3 m/s 733 mmHg 76%
    21:00 +17°C° 0 mm 2 m/s 734 mmHg 77%
    22:00 +16°C° 0 mm 2 m/s 734 mmHg 78%
    23:00 +15°C° 0 mm 2 m/s 734 mmHg 79%

    Poimâine, 21 Mai, Marţi

    Timp Temperatura Precipitaţii Vânt Presiune Umiditate
    00:00 +14°C° 0 mm 2 m/s 734 mmHg 81%
    01:00 +13°C° 0 mm 2 m/s 734 mmHg 83%
    02:00 +13°C° 0 mm 2 m/s 734 mmHg 84%
    03:00 +13°C° 0 mm 1 m/s 734 mmHg 85%
    04:00 +12°C° 0 mm 1 m/s 733 mmHg 87%
    05:00 +14°C° 0 mm 1 m/s 733 mmHg 83%
    06:00 +15°C° 0 mm 1 m/s 733 mmHg 80%
    07:00 +15°C° 0 mm 0 m/s 734 mmHg 76%
    08:00 +18°C° 0.1 mm 1 m/s 734 mmHg 75%
    09:00 +19°C° 0.1 mm 1 m/s 733 mmHg 75%
    10:00 +19°C° 0.1 mm 1 m/s 733 mmHg 74%
    11:00 +18°C° 0.8 mm 2 m/s 733 mmHg 76%
    12:00 +18°C° 0.8 mm 2 m/s 733 mmHg 77%
    13:00 +18°C° 0.8 mm 3 m/s 733 mmHg 79%
    14:00 +18°C° 0.4 mm 3 m/s 733 mmHg 79%
    15:00 +18°C° 0.4 mm 3 m/s 732 mmHg 80%
    16:00 +18°C° 0.4 mm 3 m/s 732 mmHg 80%
    17:00 +17°C° 1.6 mm 3 m/s 732 mmHg 83%
    18:00 +16°C° 1.6 mm 3 m/s 732 mmHg 86%
    19:00 +14°C° 1.6 mm 3 m/s 732 mmHg 89%
    20:00 +14°C° 0.8 mm 3 m/s 733 mmHg 90%
    21:00 +14°C° 0.8 mm 3 m/s 733 mmHg 91%
    22:00 +13°C° 0.8 mm 4 m/s 733 mmHg 91%
    23:00 +13°C° 0.5 mm 4 m/s 733 mmHg 92%

    22 Mai, Miercuri

    Timp Temperatura Precipitaţii Vânt Presiune Umiditate
    00:00 +13°C° 0.5 mm 4 m/s 733 mmHg 92%
    01:00 +13°C° 0.5 mm 4 m/s 733 mmHg 92%
    02:00 +13°C° 0.6 mm 4 m/s 733 mmHg 92%
    03:00 +13°C° 0.6 mm 4 m/s 733 mmHg 92%
    04:00 +12°C° 0.6 mm 4 m/s 733 mmHg 92%
    05:00 +13°C° 0.8 mm 4 m/s 733 mmHg 92%
    06:00 +13°C° 0.8 mm 4 m/s 733 mmHg 92%
    07:00 +13°C° 0.8 mm 4 m/s 733 mmHg 92%
    08:00 +14°C° 0.1 mm 4 m/s 733 mmHg 92%
    09:00 +14°C° 0.1 mm 4 m/s 734 mmHg 91%
    10:00 +14°C° 0.1 mm 4 m/s 734 mmHg 91%
    11:00 +16°C° 0.7 mm 5 m/s 734 mmHg 87%
    12:00 +17°C° 0.7 mm 5 m/s 734 mmHg 83%
    13:00 +20°C° 0.7 mm 6 m/s 734 mmHg 79%
    14:00 +19°C° 0.9 mm 6 m/s 734 mmHg 80%
    15:00 +19°C° 0.9 mm 6 m/s 734 mmHg 82%
    16:00 +17°C° 0.9 mm 6 m/s 734 mmHg 84%
    17:00 +16°C° 0.6 mm 6 m/s 734 mmHg 87%
    18:00 +16°C° 0.6 mm 5 m/s 734 mmHg 89%
    19:00 +15°C° 0.6 mm 5 m/s 734 mmHg 91%
    20:00 +14°C° 0.7 mm 5 m/s 734 mmHg 93%
    21:00 +14°C° 0.7 mm 5 m/s 735 mmHg 94%
    22:00 +14°C° 0.7 mm 4 m/s 735 mmHg 95%
    23:00 +14°C° 0.5 mm 5 m/s 735 mmHg 95%

    23 Mai, Joi

    Timp Temperatura Precipitaţii Vânt Presiune Umiditate
    00:00 +14°C° 0.5 mm 5 m/s 735 mmHg 95%
    01:00 +14°C° 0.5 mm 5 m/s 735 mmHg 94%
    02:00 +14°C° 0.4 mm 5 m/s 735 mmHg 94%
    03:00 +14°C° 0.4 mm 5 m/s 735 mmHg 94%
    04:00 +14°C° 0.4 mm 5 m/s 735 mmHg 94%
    05:00 +14°C° 0.8 mm 5 m/s 736 mmHg 93%
    06:00 +14°C° 0.8 mm 6 m/s 736 mmHg 92%
    07:00 +15°C° 0.8 mm 6 m/s 737 mmHg 92%
    08:00 +14°C° 0.7 mm 6 m/s 737 mmHg 92%
    09:00 +11°C° 0.7 mm 7 m/s 737 mmHg 92%
    10:00 +10°C° 0.7 mm 8 m/s 738 mmHg 92%
    11:00 +10°C° 0.2 mm 8 m/s 738 mmHg 91%
    12:00 +10°C° 0.2 mm 8 m/s 739 mmHg 91%
    13:00 +9°C° 0.2 mm 8 m/s 739 mmHg 90%
    14:00 +9°C° 0.1 mm 8 m/s 739 mmHg 89%
    15:00 +9°C° 0.1 mm 8 m/s 739 mmHg 89%
    16:00 +9°C° 0.1 mm 7 m/s 739 mmHg 88%
    17:00 +9°C° 0.1 mm 7 m/s 740 mmHg 88%
    18:00 +8°C° 0.1 mm 6 m/s 740 mmHg 88%
    19:00 +8°C° 0.1 mm 5 m/s 740 mmHg 88%
    20:00 +8°C° 0 mm 5 m/s 740 mmHg 88%
    21:00 +8°C° 0 mm 5 m/s 741 mmHg 89%
    22:00 +8°C° 0 mm 4 m/s 741 mmHg 89%
    23:00 +8°C° 0 mm 4 m/s 741 mmHg 89%

    24 Mai, Vineri

    Timp Temperatura Precipitaţii Vânt Presiune Umiditate
    00:00 +8°C° 0 mm 4 m/s 741 mmHg 89%
    01:00 +8°C° 0 mm 4 m/s 741 mmHg 90%
    02:00 +9°C° 0 mm 3 m/s 741 mmHg 91%
    03:00 +8°C° 0 mm 3 m/s 741 mmHg 92%
    04:00 +7°C° 0 mm 3 m/s 741 mmHg 94%
    05:00 +8°C° 0 mm 3 m/s 741 mmHg 89%
    06:00 +10°C° 0 mm 3 m/s 741 mmHg 84%
    07:00 +11°C° 0 mm 3 m/s 741 mmHg 79%
    08:00 +12°C° 0 mm 3 m/s 741 mmHg 74%
    09:00 +14°C° 0 mm 4 m/s 741 mmHg 68%
    10:00 +15°C° 0 mm 4 m/s 740 mmHg 63%
    11:00 +17°C° 0 mm 3 m/s 740 mmHg 61%
    12:00 +18°C° 0 mm 3 m/s 740 mmHg 59%
    13:00 +18°C° 0 mm 3 m/s 739 mmHg 57%
    14:00 +18°C° 0 mm 3 m/s 739 mmHg 58%
    15:00 +18°C° 0 mm 3 m/s 739 mmHg 60%
    16:00 +18°C° 0 mm 3 m/s 738 mmHg 61%
    17:00 +17°C° 0 mm 2 m/s 738 mmHg 65%
    18:00 +16°C° 0 mm 1 m/s 738 mmHg 70%
    19:00 +13°C° 0 mm 0 m/s 738 mmHg 75%
    20:00 +13°C° 0 mm 1 m/s 738 mmHg 77%
    21:00 +12°C° 0 mm 1 m/s 738 mmHg 79%
    22:00 +11°C° 0 mm 1 m/s 738 mmHg 82%
    23:00 +11°C° 0 mm 1 m/s 738 mmHg 84%
    Arată mai mult